AQI (30)

Current Conditions for Foresthill, CA. Clear skies, Dry   
Visibility: 10 miles
Foresthill Advisory text: No Warning

  Summary / Temperature 

Current Temperature
57.2°F
14°C
(24/hr Ago)
52.4°F
(Apparent temp)
55.2°F
Cool
Wind Chill Graphs
57.2°F 

57.2°F/ 14°C
 --- Virtual Temp: 59.1°F ---

 Temp Rate:

 24/hr Difference:

 Avg Running Temp:

 Todays High:

 Todays Low:

 Y-days High:

 Y-days Low:

 Todays WChill:

 Y-days WChill:

 Evapotranspiration:

-2.3°F/hr 

+4.8°F

59.9°F

64.1°F 3:56pm

48.2°F 2:22am

59.3°F 3:23pm

43.1°F 7:54am

42.9°F 3:31am

36.3°F 7:28am

0.087 in

115' Above Ground

 Temperature:

 6'AGL VRS 115'AGL:

 Avg Running Temp:

 Humidity:

 Todays High:

 Todays Low:

 Y-days High:

 Y-days Low:

60.0°F 

+2.8°F

61.7°F

44% 

68.0°F 3:53pm

51.0°F 1:11am

62.0°F 4:08pm

44.0°F 6:00am

Temp & Humidity Graphs

  Wind 

Wind Speed

 Calm

Gusting to

 None

Calm

252°  

Calm

 Avg speed:

 Wind Run:

 Peak Gust:

Calm 

28.0 miles

  18.0 mph 7:13am

  Almanac  

Moon age: 27 days,23 hours,55 minutes,3%

New moon
1%
Illuminated
28 days in cycle

 Moonrise:

 Moonset:

 Sunrise:

 Sunset:

 Solar Noon:

6:06am

5:43pm

7:21am

6:15pm

12:47pm

2min 24s less daylight tomorrow 

  Solar Radiation 

(Current Solar)
  No Sun Light
(Todays High)
 691 W/m2@10:33am

Rain

 Rain Today:

 Rain Rate (/hr):

 Rain last hour:

 Rain Yesterday:

 This Month:

 Season Total:

2 Days Since Last Dry Day

0.00 in

0.000 in

0.00 in

0.01 in

0.76 in

2.59 in

Updated Time

Updated: 10/22/14  7:18pm

(Updated  sec ago)

Humidity & Barometer

 Humidity:

 Wetbulb:

 Dew Point:

 Barometer:

55% 

49.6°F 

41.2°F 

30.082 inHg 

 Baro Trend:  Steady 
Northern Calif
Preparedness
Fire 
Level 

    UV Index  

(Current UV)
0.0  None
(Todays High) @ 12:06pm
5.0   Medium

Weather Underground 5 day Forecast

Wed Thu Fri Sat Sun
Partly Cloudy Mostly Cloudy Partly Cloudy  b?/b - T-storms  Chance Rain
Partly Cloudy Mostly Cloudy Partly Cloudy  ? - T-storms  Chance Rain
70 64 72 57 54
50 52 52 46 43

Foresthill Probe 2 Stats  
Foresthill Probe 2: is located on Thomas Street
at 3000 feet. The main Foresthill Weather site
is located on Melody ln at the 2860 foot elevation

Calm
54.0°F
12.2°C
Temp Rate:
-3.1°F
Calm
Gusting to
None
(Humidity)
60%
Calm
195°  
Updated: 22/10/14 - 19:17:35
 Todays High: 65.4°F 14:27
 Todays Low: 46.4°F 02:01
 Rain Today: 0.00 in
 Season Total: 2.81 in

Foresthill Wx: Monthly,Yearly, Highs and Lows 

Foresthill  
This Weather Data is coming from the main Foresthill
Weather site located on Melody ln at the 2860 foot
elevation
Not Foresthill Probe 2
Weather Data
Month
  High
Month
  Low
Year
High
Year
Low
Temp 86.5F
10/6/14
43.1F
10/21/14
96.4F
7/14/14
32.0F
2/4/14
Humidity 96%
10/21/14
9%
10/12/14
100%
3/1/14
9%
10/12/14
Heat Index 83.4F
10/6/14
49.0F
10/21/14
95.0F
7/14/14
35.5F
2/5/14
Wind Chill 86.5F
10/6/14
36.3F
10/21/14
96.4F
7/14/14
21.6F
2/5/14
Wind Gust 26 mph
10/1/14
0 mph
10/1/14
40 mph
3/12/14
0 mph
1/1/14
Barometer 30.16 in
10/3/14
29.77 in
10/14/14
30.55 in
1/14/14
29.47 in
2/28/14
ET 0.18 in
10/8/14
0.00 in
10/1/14
0.27 in
7/4/14
0.00 in
1/1/14
Dew Point 53.8F
10/16/14
17.4F
10/12/14
64.6F
8/4/14
5.1F
1/4/14
Infrared Satellite Regional Radar Satellite Imagery Sacramento,CA.  (click to enlarge)
NWS Weather Forecast - Outlook: Tonight and Thursday
Tonight

Mostly Cloudy
Mostly
Cloudy
Lo 51 °F
NWS forecast: Mostly cloudy, with a low around 51. Light and variable wind.
Thursday

Slight Chc Rain. Chance for Measurable Precipitation 20%
Slight Chc
Rain
Hi 64 °F
NWS forecast: A 20 percent chance of rain. Mostly cloudy, with a high near 64. Light and variable wind becoming south southwest around 6 mph in the afternoon. New precipitation amounts of less than a tenth of an inch possible.
NWS Weather Forecast - Summary
Updated: Wednesday, October 22, 2014 - 3:29pm (PDT)
YR.NO 10 Day Weather forecast
Last update: 10/22/2014 @ 12:07
Next update: 10/23/2014 @ 01:00
Provided by: 22
      Temperature Precipitation Pressure Wind  
Today
10/22/2014
17:00 23:00 63°F   30.01 inHg Light air from west-southwest 2 mph
  23:00 05:00 46°F   30.04 inHg Light air from east-northeast 3 mph
    (Click to enlarge)
meteogram

    Forecast for next 9 days

      Temperature Precip Pressure Wind  
Thursday
10/23/2014
05:00 11:00 43°F   30.03 inHg Light air from east-northeast 3 mph
  11:00 17:00 64°F   30.05 inHg Light breeze from south 4 mph
  17:00 23:00 61°F   30.02 inHg Light air from west-southwest 3 mph
  23:00 05:00 45°F   30.04 inHg Light air from east-northeast 3 mph
      Temperature Precip Pressure Wind  
Friday
10/24/2014
05:00 11:00 43°F   29.97 inHg Light breeze from east-northeast 5 mph
  11:00 17:00 70°F   29.97 inHg Light breeze from south 6 mph
  17:00 23:00 68°F   29.91 inHg Light air from southwest 3 mph
  23:00 05:00 48°F   29.93 inHg Light breeze from east 5 mph
      Temperature Precip Pressure Wind  
Saturday
10/25/2014
05:00 11:00 45°F   29.91 inHg Light breeze from east 4 mph
  11:00 17:00 59°F 0.40 in 29.96 inHg Gentle breeze from south-southeast 9 mph
  17:00 23:00 48°F 0.19 in 30.01 inHg Light breeze from south-southeast 7 mph
  23:00 05:00 45°F 0.15 in 30.10 inHg Light breeze from east-southeast 4 mph
      Temperature Precip Pressure Wind  
Sunday
10/26/2014
05:00 11:00 45°F 0.33 in 30.09 inHg Light breeze from south-southeast 4 mph
  11:00 17:00 46°F 0.08 in 30.13 inHg Light breeze from south-southwest 6 mph
  17:00 23:00 50°F   30.08 inHg Light air from north-northeast 2 mph
  23:00 05:00 39°F   30.08 inHg Light breeze from east-northeast 4 mph
      Temperature Precip Pressure Wind  
Monday
10/27/2014
05:00 11:00 39°F   30.00 inHg Light breeze from east-northeast 5 mph
  11:00 17:00 57°F   30.00 inHg Light air from northeast 3 mph
  17:00 23:00 57°F   29.97 inHg Light breeze from west 5 mph
  23:00 05:00 41°F   30.02 inHg Light breeze from east-northeast 5 mph
      Temperature Precip Pressure Wind  
Tuesday
10/28/2014
05:00 11:00 39°F   30.04 inHg Light breeze from east-northeast 4 mph
  11:00 17:00 61°F   30.07 inHg Light air from southwest 1 mph
  17:00 23:00 61°F   30.04 inHg Light breeze from west 4 mph
  23:00 05:00 43°F   30.06 inHg Light air from east-northeast 2 mph
      Temperature Precip Pressure Wind  
Wednesday
10/29/2014
05:00 11:00 39°F   30.01 inHg Light breeze from east-northeast 4 mph
  11:00 17:00 59°F 0.02 in 30.02 inHg Light air from west-southwest 1 mph
  17:00 23:00 59°F   29.94 inHg Light air from west 3 mph
  23:00 05:00 41°F   29.91 inHg Light air from east-northeast 3 mph
      Temperature Precip Pressure Wind  
Thursday
10/30/2014
05:00 11:00 37°F   29.86 inHg Light air from east-northeast 3 mph
  11:00 17:00 54°F   29.82 inHg Gentle breeze from south-southwest 8 mph
  17:00 23:00 52°F 0.05 in 29.78 inHg Light breeze from south-southwest 7 mph
  23:00 05:00 41°F 0.12 in 29.81 inHg Light breeze from east-southeast 4 mph
      Temperature Precip Pressure Wind  
Friday
10/31/2014
05:00 11:00 41°F 0.43 in 29.74 inHg Light air from east 3 mph
  11:00 17:00 41°F 0.11 in 29.81 inHg Light breeze from east-southeast 5 mph
  17:00 23:00 45°F 0.47 in 29.66 inHg Light air from north-northwest 2 mph
  23:00 05:00 41°F 0.20 in 29.63 inHg Light air from northeast 1 mph

Weather History For Wednesday, October 22, 2014


On this Day - In Weather History ...
Data courtesy of weatherforyou.com
powered by Cumulus v1.9.3 (1059)
Ambient Weather VWS v14.00
Top Contact Website Map Copyright © 2007 - 2014 Foresthillweather.com Never base important decisions on this or any weather information obtained from the Internet